Regional Weather Roundup
Issued by NWS

Home | Current Version | Previous Version | Graphics & Text | Print | Product List | Glossary On
Versions: 1 2 3 4 5 6 7 8 9 10 11 12 13 14 15 16 17 18 19 20 21 22 23 24 25 26 27 28 29 30 31 32 33 34 35 36 37 38 39 40 41 42 43 44 45 46 47 48 49 50
000
ASUS43 KDTX 220601
RWRMI
MICHIGAN HOURLY REGIONAL WEATHER ROUNDUP
NATIONAL WEATHER SERVICE DETROIT/PONTIAC MI
100 AM EST MON DEC 22 2014

NOTE: "FAIR" INDICATES FEW OR NO CLOUDS BELOW 12,000 FEET WITH NO
SIGNIFICANT WEATHER AND/OR OBSTRUCTION TO VISIBILITY.

MIZ047>049-052>055-059>063-066>070-074>076-081>083-220700-
SOUTHEAST LOWER MICHIGAN

CITY           SKY/WX    TMP DP  RH WIND       PRES   REMARKS
ADRIAN         PTCLDY    26  23  88 E6        30.15F FOG     WCI  19
6HR MIN TEMP:  26; 6HR MAX TEMP:  31;

ALMA           CLEAR     28  26  91 SE6       30.12F FOG     WCI  21
ANN ARBOR      PTCLDY    27  23  85 E6        30.16F FOG     WCI  20
BAD AXE        CLOUDY    30  26  83 S9        30.17F WCI  22
6HR MIN TEMP:  30; 6HR MAX TEMP:  32;

CARO           CLOUDY    31  24  77 SE7       30.15F WCI  24
DETROIT CITY   CLEAR     29  22  75 SE3       30.19F
6HR MIN TEMP:  28; 6HR MAX TEMP:  31;

DETROIT        FAIR      28  23  81 E3        30.18F HAZE
6HR MIN TEMP:  28; 6HR MAX TEMP:  31;

FLINT          CLOUDY    31  24  75 SE12      30.16F WCI  22
6HR MIN TEMP:  31; 6HR MAX TEMP:  34;

GROSSE ILE     PTCLDY    28  25  86 E5        30.17F WCI  23
HILLSDALE      PTCLDY    27  25  91 SE8       30.11F FOG     WCI  19
HOWELL         CLEAR     27  25  93 SE9       30.13F FOG     WCI  17
6HR MIN TEMP:  26; 6HR MAX TEMP:  31;


CITY           SKY/WX    TMP DP  RH WIND       PRES   REMARKS
JACKSON        PTCLDY    27  24  89 SE8       30.12F FOG     WCI  19
6HR MIN TEMP:  27; 6HR MAX TEMP:  31;

LAMBERTVILLE   MOCLDY    28  23  80 E3        30.16F
LANSING        CLEAR     28  24  85 SE9       30.12F FOG     WCI  19
6HR MIN TEMP:  28; 6HR MAX TEMP:  32;

LAPEER         MOCLDY    28  24  84 SE6       30.16F WCI  22
MASON          CLEAR     28  24  87 SE9       30.12F FOG     WCI  19
MONROE         PTCLDY    30  25  80 SE7       30.15F WCI  23
MT. CLEMENS    MOCLDY    30  26  84 SE8       30.17S WCI  23
6HR MIN TEMP:  28; 6HR MAX TEMP:  31;

PONTIAC        CLEAR     26  23  88 SE6       30.15F FOG     WCI  19
6HR MIN TEMP:  26; 6HR MAX TEMP:  30;

PORT HOPE        N/A     31  23  72 S8        30.16F WCI  23
6HR MIN TEMP:  31; 6HR MAX TEMP:  32;

PORT HURON     CLOUDY    23  23 100 CALM      30.19F FOG
TRI CITIES     CLOUDY    32  23  69 SE10      30.15F WCI  24
6HR MIN TEMP:  32; 6HR MAX TEMP:  34;

TROY           CLEAR     30  25  82 CALM      30.20S FOG
SAGINAW HB     CLOUDY    32  27  80 SE9       30.15F WCI  24
$$
MIZ043>046-050>051-056>058-064>065-071>073-077>080-220700-
SOUTHWEST LOWER MICHIGAN

CITY           SKY/WX    TMP DP  RH WIND       PRES   REMARKS
BATTLE CREEK   CLEAR     29  23  78 SE8       30.09F WCI  21
6HR MIN TEMP:  29; 6HR MAX TEMP:  32;

BENTON HARBOR  PTCLDY    30  25  81 SE12      30.06F WCI  20
6HR MIN TEMP:  30; 6HR MAX TEMP:  32;

BIG RAPIDS     CLOUDY    29  28  94 SE6       30.07F FOG     WCI  23
6HR MIN TEMP:  29; 6HR MAX TEMP:  32;

COLDWATER      PTCLDY    28  24  84 MISG      30.09F
6HR MIN TEMP:  28; 6HR MAX TEMP:  30;

FREMONT        MOCLDY    29  26  86 SE6       30.07S WCI  23
HOLLAND        CLOUDY    33  25  72 SE10      30.07F WCI  25
6HR MIN TEMP:  32; 6HR MAX TEMP:  36;

GRAND RAPIDS   CLEAR     29  24  82 SE9       30.09F HAZE    WCI  20
6HR MIN TEMP:  29; 6HR MAX TEMP:  30;

IONIA          FAIR      29  26  90 SE10      30.09F FOG     WCI  20
KALAMAZOO      PTCLDY    29  24  82 SE6       30.09F WCI  23
6HR MIN TEMP:  29; 6HR MAX TEMP:  32;

LUDINGTON      MOCLDY    33  27  79 SE8       30.05F WCI  26
6HR MIN TEMP:  33; 6HR MAX TEMP:  36;

MARSHALL       PTCLDY    27  23  87 SE8       30.10F WCI  18
MOUNT PLEASANT CLEAR     28  26  90 SE6       30.11F FOG     WCI  22
6HR MIN TEMP:  28; 6HR MAX TEMP:  32;

MUSKEGON       PTCLDY    31  25  78 SE9       30.07F WCI  23
6HR MIN TEMP:  31; 6HR MAX TEMP:  35;

SOUTH HAVEN    PTCLDY    32  26  80 SE12      30.07S WCI  23
$$
MIZ016>042-220700-
NORTHERN LOWER MICHIGAN

CITY           SKY/WX    TMP DP  RH WIND       PRES   REMARKS
ALPENA         CLOUDY    31  26  82 S12       30.14F WCI  22
6HR MIN TEMP:  30; 6HR MAX TEMP:  31;

BEAVER ISLAND  CLOUDY    33  30  88 SE8       30.05F WCI  27
6HR MIN TEMP:  33; 6HR MAX TEMP:  34;

BELLAIRE       CLOUDY    33  28  81 SE9       30.08F WCI  25
6HR MIN TEMP:  32; 6HR MAX TEMP:  33;

CADILLAC       PTCLDY    29  26  88 SE12      30.04F FOG     WCI  19
CHARLEVOIX     CLOUDY    32  28  84 SE10      30.08F WCI  24
6HR MIN TEMP:  32; 6HR MAX TEMP:  32;

FRANKFORT      CLOUDY    32  28  84 SE8       30.05S WCI  25
GAYLORD        CLOUDY    28  24  85 S12       30.06F WCI  18
6HR MIN TEMP:  28; 6HR MAX TEMP:  29;

GRAYLING       CLOUDY    29  25  86 SE8       30.10F WCI  21
6HR MIN TEMP:  28; 6HR MAX TEMP:  31;

HARBOR SPRINGS CLOUDY    32  27  82 E6        30.07F WCI  26
HOUGHTON LAKE  MOCLDY    26  22  84 SE3       30.10F
6HR MIN TEMP:  26; 6HR MAX TEMP:  30;

MANISTEE       MOCLDY    32  25  74 SE5       30.05F WCI  27
OSCODA         CLOUDY    32  27  81 S8        30.16F WCI  24
PELLSTON       CLOUDY    32  27  81 SE9       30.08F WCI  24
6HR MIN TEMP:  32; 6HR MAX TEMP:  33;

ROGERS CITY    CLOUDY    31  28  87 S7        30.14F WCI  24
TRAVERSE CITY  CLOUDY    33  27  78 SE8       30.05F WCI  26
6HR MIN TEMP:  33; 6HR MAX TEMP:  34;

$$
MIZ007>008-015-220700-
EASTERN UPPER MICHIGAN

CITY           SKY/WX    TMP DP  RH WIND       PRES   REMARKS
KINROSS        CLOUDY    30  28  93 S8        30.07F WCI  23
6HR MIN TEMP:  30; 6HR MAX TEMP:  32;

MACKINAC ISLAN CLOUDY    32  28  86 S7        30.07F WCI  26
6HR MIN TEMP:  32; 6HR MAX TEMP:  32;

NEWBERRY       CLOUDY    32  31  96 S12G18    30.02S FOG     WCI  23
6HR MIN TEMP:  31; 6HR MAX TEMP:  32;

S. S. MARIE    CLOUDY    32  28  85 SE10      30.11R WCI  24
6HR MIN TEMP:  31; 6HR MAX TEMP:  32;

MUNISING         N/A     37  32  82 S14G28    29.94F WCI  28
6HR MIN TEMP:  36; 6HR MAX TEMP:  38; 6HR PCP:  0.04;

$$
MIZ004>006-011>014-085-220700-
CENTRAL UPPER MICHIGAN

CITY           SKY/WX    TMP DP  RH WIND       PRES   REMARKS
MANISTIQUE     CLOUDY    34  33  96 S14G22    30.01S FOG     WCI  25
6HR MIN TEMP:  33; 6HR MAX TEMP:  35;

ESCANABA       CLOUDY    36  30  80 S17       29.96S WCI  25
6HR MIN TEMP:  36; 6HR MAX TEMP:  37;

MENOMINEE      CLOUDY    36  32  87 SW14      29.96S WCI  27
6HR MIN TEMP:  36; 6HR MAX TEMP:  37;

SAWYER-GWINN   LGT SNOW  33  32  95 S17       29.90S WCI  22
$$
MIZ001>003-009>011-084-220700-
WESTERN UPPER MICHIGAN

CITY           SKY/WX    TMP DP  RH WIND       PRES   REMARKS
IRON MOUNTAIN  LGT SNOW  33  31  92 S14G22    29.90R FOG     WCI  23
6HR MIN TEMP:  33; 6HR MAX TEMP:  34; 6HR PCP: TRACE;

HOUGHTON       LGT SNOW  32  31  96 SE8       29.83F VSB 3/4 WCI  25
6HR MIN TEMP:  32; 6HR MAX TEMP:  32; 6HR PCP:  0.17;

COPPER HARBOR    N/A     35  32  88 SW12G22   29.86S WCI  27
6HR MIN TEMP:  34; 6HR MAX TEMP:  35; 6HR PCP:  0.28;

IRONWOOD       CLOUDY    36  34  93 S10       29.76F WCI  28
6HR MIN TEMP:  34; 6HR MAX TEMP:  36;

$$

ABBREVIATIONS USED IN REMARKS
   TC - TEMPERATURE IN CELSIUS
  WCI - WIND CHILL INDEX
   HX - HEAT INDEX
  VSB - VISIBILITY



USA.gov is the U.S. government's official web portal to all federal, state and local government web resources and services.